Voltar ao catálogo

STARLINK-31660

AtivoComunicaçõesVLEO
NORAD 59642·PAYLOAD·🇺🇸 United States

Lançado May 3, 2024 de Cape Canaveral Space Force Station

Loading…

Próximas Passagens (próximas 24 horas)

TLE

AtualizadoSource: CelesTrak SupGP

Época: Sep 15, 2026, 02:21 UTC

1 59642C 24082M   26258.09840278  .00049077  00000+0  17773-2 0  2584
2 59642  42.9997 109.7542 0001372 276.2418 231.3419 15.27559492    12

Acompanhe STARLINK-31660 em tempo real com AllMySat

Download on the App Store